Regional Weather Roundup
Issued by NWS Burlington, VT

Home | Current Version | Previous Version | Text Only | Print | Product List | Glossary On
Versions: 1 2 3 4 5 6 7 8 9 10 11 12 13 14 15 16 17 18 19 20 21 22 23 24 25 26 27 28 29 30 31 32 33 34 35 36 37 38 39 40 41 42 43 44 45 46 47 48 49 50
047
ASUS41 KBTV 231410
RWRBTV
VERMONT REGIONAL WEATHER ROUNDUP
NATIONAL WEATHER SERVICE BURLINGTON VT
1000 AM EDT THU MAR 23 2017

NOTE: "FAIR" INDICATES FEW OR NO CLOUDS BELOW 12,000 FEET WITH NO
SIGNIFICANT WEATHER AND/OR OBSTRUCTIONS TO VISIBILITY.

* THESE REPORTS ARE NOT UNDER NWS QUALITY CONTROL AND/OR DO NOT
  REPORT WEATHER SUCH AS PRECIPITATION AND FOG.

VTZ001>019-231500-
_____VERMONT_____


CITY           SKY/WX    TMP DP  RH WIND       PRES   REMARKS
BURLINGTON     MOSUNNY   22   2  42 N3        30.52S
MONTPELIER     SUNNY     16  -1  47 N13       30.46S WCI   2
MORRISVILLE    MIX PCPN  18  -4  37 N16G22    30.48S WCI   3
ST. JOHNSBURY*   N/A     20  -2  38 MISG      30.43F
LYNDONVILLE*   FAIR      15  -3  44 W14       30.42S WCI   0
MIDDLEBURY*    FAIR      19  -2  38 CALM      30.51S
RUTLAND*       SUNNY     17  -1  45 N6        30.49S WCI   9
SPRINGFIELD    SUNNY     22  -6  29 VRB6      30.47S WCI  14
HIGHGATE*      FAIR      19  -1  42 NW7       30.53S WCI  10
NEWPORT*       FAIR      15  -3  45 NW10G18   30.45S WCI   2
BENNINGTON     SUNNY     19  -2  39 W8        30.51R WCI   9
SUTTON*          N/A     14 N/A N/A MISG        N/A

_____LAKE CHAMPLAIN_____


CITY           SKY/WX    TMP DP  RH WIND       PRES   REMARKS
BURTON ISLAND*   N/A     21   5  49 E2          N/A
COLCHESTER RF*   N/A     25   1  36 NW13        N/A  WCI  13
DIAMOND ISL*     N/A     27  -2  28 NW9G17      N/A  WCI  17

$$

NYZ007-026>031-035-052-083-087-231500-
_____NORTHERN NEW YORK_____


CITY           SKY/WX    TMP DP  RH WIND       PRES   REMARKS
PLATTSBURGH    MIX PCPN  24  -4  29 VRB6G16   30.52S WCI  17
SARANAC LAKE   SUNNY     14  -4  44 SW7       30.42F WCI   4
MASSENA        SUNNY     20   4  50 SW7       30.58S WCI  11
WATERTOWN      SUNNY     24  11  57 W8        30.59S WCI  15
FT DRUM        SUNNY     22   2  41 W8        30.55S WCI  13
ALBANY         SUNNY     24  -1  33 NW7       30.59R WCI  16
GLENS FALLS    SUNNY     24  -4  29 NW12G18   30.55S WCI  13

$$
NHZ002-005-011-231500-
_____NEW HAMPSHIRE_____


CITY           SKY/WX    TMP DP  RH WIND       PRES   REMARKS
LEBANON        SUNNY     22  -1  36 NW16      30.46S WCI   8
KEENE          SUNNY     21  -1  38 N12       30.48S WCI   9
PLYMOUTH       FAIR      20  -3  36 NW12G21   30.43S WCI   8
WHITEFIELD     SUNNY     16  -4  41 W15G26    30.40S WCI   1

$$

_____REGIONAL QUEBEC LOCATIONS_____


CITY           SKY/WX    TMP DP  RH WIND       PRES   REMARKS
MONTREAL       MOSUNNY   21   0  39 W9        30.54R WCI  11
QUEBEC CITY    MOSUNNY   10  -2  56 SW15      30.43S WCI  -6
SHERBROOKE     SUNNY     12  -4  48 W16G22    30.43S WCI  -4

_____REGIONAL ONTARIO LOCATIONS_____


CITY           SKY/WX    TMP DP  RH WIND       PRES   REMARKS
OTTAWA         MOSUNNY   19   5  53 NW13      30.55R WCI   7

______KEY______
VSB  - VISIBILITY IN MILES
WCI  - WIND CHILL INDEX
HX   - HEAT INDEX
$$
NNNN




USA.gov is the U.S. government's official web portal to all federal, state and local government web resources and services.